| time (UTC) | temp F | wind direction | speed knots | gust knots | rain 1hr in | rain 24hr in | rain mn in | humidity % | barometer mb |
| 20260903024544 | 79 | 182 | 1.7 | 4.3 | 0.00 | 0.00 | 0.00 | 86 | 1013.2 |
| 20260903023044 | 79 | 204 | 2.6 | 5.2 | 0.00 | 0.00 | 0.00 | 86 | 1013.5 |
| 20260903021546 | 80 | 163 | 0.9 | 3.5 | 0.00 | 0.00 | 0.00 | 86 | 1013.5 |
| 20260903020048 | 80 | 175 | 1.7 | 4.3 | 0.00 | 0.00 | 0.00 | 86 | 1013.4 |
| 20260903014549 | 80 | 180 | 1.7 | 3.5 | 0.00 | 0.00 | 0.00 | 86 | 1013.4 |
| 20260903013042 | 80 | 360 | 1.7 | 2.6 | 0.00 | 0.00 | 0.00 | 85 | 1013.4 |
| 20260903011556 | 80 | 177 | 0.9 | 2.6 | 0.00 | 0.00 | 0.00 | 84 | 1013.4 |
| 20260903010041 | 81 | 196 | 0.9 | 2.6 | 0.00 | 0.00 | 0.00 | 83 | 1013.2 |
| 20260903004541 | 81 | 360 | 0.0 | 3.5 | 0.00 | 0.00 | 0.00 | 82 | 1013.2 |
| 20260903003042 | 82 | 360 | 0.9 | 2.6 | 0.00 | 0.00 | 0.00 | 81 | 1013.0 |
| 20260903001541 | 84 | 248 | 0.0 | 1.7 | 0.00 | 0.00 | 0.00 | 78 | 1013.0 |
| 20260903000038 | 86 | 257 | 0.0 | 3.5 | 0.00 | 0.01 | 0.00 | 75 | 1013.1 |
| 20260902234542 | 87 | 214 | 0.9 | 4.3 | 0.00 | 0.01 | 0.00 | 73 | 1013.1 |
| 20260902233048 | 88 | 188 | 1.7 | 5.2 | 0.00 | 0.01 | 0.00 | 72 | 1013.1 |
| 20260902231550 | 89 | 360 | 0.9 | 7.0 | 0.00 | 0.01 | 0.00 | 71 | 1013.0 |
| 20260902230036 | 90 | 219 | 0.9 | 5.2 | 0.00 | 0.01 | 0.00 | 69 | 1013.0 |
| 20260902224544 | 91 | 209 | 1.7 | 7.8 | 0.00 | 0.01 | 0.00 | 67 | 1013.0 |
| 20260902223035 | 91 | 228 | 4.3 | 9.6 | 0.00 | 0.01 | 0.00 | 66 | 1013.0 |
| 20260902221542 | 92 | 360 | 2.6 | 10.4 | 0.00 | 0.01 | 0.00 | 65 | 1013.2 |
| 20260902220034 | 92 | 244 | 1.7 | 10.4 | 0.00 | 0.01 | 0.00 | 65 | 1013.1 |
| 20260902214533 | 93 | 184 | 3.5 | 12.2 | 0.00 | 0.01 | 0.00 | 64 | 1013.2 |
| 20260902213032 | 93 | 206 | 1.7 | 9.6 | 0.00 | 0.01 | 0.00 | 65 | 1013.3 |
| 20260902211540 | 93 | 198 | 4.3 | 13.0 | 0.00 | 0.01 | 0.00 | 64 | 1013.3 |
| 20260902210030 | 93 | 188 | 3.5 | 9.6 | 0.00 | 0.01 | 0.00 | 65 | 1013.5 |
| 20260902204529 | 93 | 360 | 2.6 | 12.2 | 0.00 | 0.01 | 0.00 | 65 | 1013.6 |
| 20260902203027 | 94 | 232 | 5.2 | 12.2 | 0.00 | 0.01 | 0.00 | 62 | 1013.7 |
| 20260902201533 | 94 | 240 | 4.3 | 9.6 | 0.00 | 0.01 | 0.00 | 64 | 1013.9 |
| 20260902200021 | 93 | 232 | 4.3 | 8.7 | 0.00 | 0.01 | 0.00 | 64 | 1014.0 |
| 20260902194518 | 94 | 236 | 3.5 | 10.4 | 0.00 | 0.01 | 0.00 | 67 | 1014.1 |
| 20260902193017 | 93 | 252 | 3.5 | 8.7 | 0.00 | 0.01 | 0.00 | 66 | 1014.3 |
| 20260902191514 | 93 | 242 | 4.3 | 10.4 | 0.00 | 0.01 | 0.00 | 65 | 1014.5 |
| 20260902190012 | 93 | 230 | 1.7 | 7.8 | 0.00 | 0.01 | 0.00 | 67 | 1014.6 |
| 20260902184509 | 93 | 207 | 4.3 | 13.9 | 0.00 | 0.01 | 0.00 | 66 | 1014.9 |
| 20260902183010 | 93 | 234 | 4.3 | 8.7 | 0.00 | 0.01 | 0.00 | 65 | 1015.1 |
| 20260902181502 | 92 | 360 | 3.5 | 11.3 | 0.00 | 0.01 | 0.00 | 65 | 1015.0 |
| 20260902180130 | 92 | 225 | 4.3 | 8.7 | 0.00 | 0.01 | 0.00 | 65 | 1015.2 |
| 20260902174558 | 91 | 360 | 3.5 | 8.7 | 0.00 | 0.01 | 0.00 | 65 | 1015.3 |
| 20260902173055 | 91 | 258 | 2.6 | 9.6 | 0.00 | 0.01 | 0.00 | 69 | 1015.5 |
| 20260902171554 | 91 | 197 | 3.5 | 8.7 | 0.00 | 0.01 | 0.00 | 68 | 1015.6 |
| 20260902170051 | 90 | 225 | 1.7 | 4.3 | 0.00 | 0.01 | 0.00 | 69 | 1015.6 |
| 20260902164552 | 89 | 228 | 1.7 | 7.8 | 0.00 | 0.01 | 0.00 | 71 | 1016.1 |
| 20260902163057 | 90 | 360 | 2.6 | 8.7 | 0.00 | 0.01 | 0.00 | 73 | 1016.0 |
| 20260902161553 | 89 | 271 | 4.3 | 9.6 | 0.00 | 0.01 | 0.00 | 71 | 1016.2 |
| 20260902160045 | 88 | 256 | 3.5 | 9.6 | 0.00 | 0.01 | 0.00 | 72 | 1016.1 |
| 20260902154544 | 88 | 277 | 3.5 | 7.8 | 0.00 | 0.01 | 0.00 | 73 | 1016.0 |
| 20260902153041 | 87 | 360 | 1.7 | 7.0 | 0.00 | 0.01 | 0.00 | 76 | 1016.0 |
| 20260902151538 | 86 | 198 | 2.6 | 7.0 | 0.00 | 0.01 | 0.00 | 77 | 1016.0 |
| 20260902150036 | 86 | 230 | 1.7 | 7.0 | 0.00 | 0.02 | 0.00 | 78 | 1016.0 |
| 20260902144537 | 85 | 232 | 1.7 | 7.0 | 0.00 | 0.02 | 0.00 | 78 | 1016.0 |
| 20260902143031 | 84 | 225 | 1.7 | 7.0 | 0.00 | 0.02 | 0.00 | 80 | 1015.8 |
| 20260902141528 | 83 | 246 | 1.7 | 5.2 | 0.00 | 0.02 | 0.00 | 82 | 1015.8 |
| 20260902140024 | 82 | 209 | 1.7 | 5.2 | 0.00 | 0.02 | 0.00 | 82 | 1015.7 |
| 20260902134533 | 81 | 360 | 2.6 | 8.7 | 0.00 | 0.02 | 0.00 | 83 | 1015.7 |
| 20260902133022 | 80 | 182 | 0.9 | 7.0 | 0.00 | 0.02 | 0.00 | 87 | 1015.6 |
| 20260902131515 | 79 | 196 | 1.7 | 5.2 | 0.00 | 0.02 | 0.00 | 88 | 1015.7 |
| 20260902130013 | 77 | 182 | 1.7 | 4.3 | 0.00 | 0.02 | 0.00 | 91 | 1015.8 |
| 20260902124508 | 76 | 195 | 0.9 | 5.2 | 0.00 | 0.02 | 0.00 | 93 | 1015.7 |
| 20260902123008 | 74 | 175 | 0.9 | 3.5 | 0.00 | 0.02 | 0.00 | 95 | 1015.8 |
| 20260902121507 | 73 | 180 | 0.9 | 3.5 | 0.00 | 0.02 | 0.00 | 95 | 1015.8 |
| 20260902120006 | 72 | 189 | 0.9 | 2.6 | 0.00 | 0.02 | 0.00 | 96 | 1015.7 |
| 20260902114505 | 72 | 170 | 0.9 | 3.5 | 0.00 | 0.02 | 0.00 | 96 | 1015.5 |
| 20260902113003 | 72 | 160 | 1.7 | 4.3 | 0.00 | 0.02 | 0.00 | 95 | 1015.5 |
| 20260902111506 | 71 | 157 | 0.9 | 4.3 | 0.00 | 0.02 | 0.00 | 95 | 1015.4 |
| 20260902110107 | 72 | 178 | 0.9 | 2.6 | 0.00 | 0.02 | 0.00 | 95 | 1015.2 |
| 20260902104600 | 72 | 171 | 1.7 | 3.5 | 0.00 | 0.02 | 0.00 | 95 | 1015.2 |
| 20260902103058 | 72 | 170 | 1.7 | 3.5 | 0.00 | 0.02 | 0.00 | 95 | 1015.0 |
| 20260902101605 | 72 | 183 | 0.9 | 3.5 | 0.00 | 0.02 | 0.00 | 95 | 1015.1 |
| 20260902100109 | 73 | 180 | 0.9 | 2.6 | 0.00 | 0.02 | 0.00 | 95 | 1015.0 |
| 20260902094555 | 73 | 183 | 0.9 | 2.6 | 0.00 | 0.02 | 0.00 | 95 | 1015.0 |
| 20260902093054 | 73 | 190 | 1.7 | 3.5 | 0.00 | 0.02 | 0.00 | 94 | 1015.0 |
| 20260902091555 | 73 | 172 | 0.9 | 3.5 | 0.00 | 0.02 | 0.00 | 94 | 1015.0 |
| 20260902090050 | 74 | 181 | 1.7 | 3.5 | 0.00 | 0.02 | 0.00 | 94 | 1015.1 |
| 20260902084559 | 74 | 164 | 0.0 | 0.9 | 0.00 | 0.02 | 0.00 | 94 | 1015.1 |
| 20260902083049 | 74 | 171 | 0.9 | 2.6 | 0.00 | 0.02 | 0.00 | 94 | 1014.9 |
| 20260902081647 | 74 | 175 | 1.7 | 3.5 | 0.00 | 0.02 | 0.00 | 94 | 1014.9 |
| 20260902080048 | 74 | 184 | 2.6 | 4.3 | 0.00 | 0.02 | 0.00 | 94 | 1014.7 |
| 20260902074546 | 74 | 175 | 1.7 | 4.3 | 0.00 | 0.02 | 0.00 | 94 | 1014.7 |
| 20260902073052 | 74 | 189 | 1.7 | 3.5 | 0.00 | 0.02 | 0.00 | 94 | 1014.6 |
| 20260902071545 | 74 | 186 | 0.0 | 2.6 | 0.00 | 0.02 | 0.00 | 93 | 1014.6 |
| 20260902070045 | 74 | 172 | 0.0 | 3.5 | 0.00 | 0.02 | 0.00 | 93 | 1014.7 |
| 20260902064549 | 75 | 208 | 0.9 | 2.6 | 0.00 | 0.02 | 0.00 | 93 | 1014.7 |
| 20260902063050 | 75 | 209 | 0.9 | 2.6 | 0.00 | 0.02 | 0.00 | 93 | 1014.8 |
| 20260902061551 | 75 | 213 | 0.9 | 3.5 | 0.00 | 0.02 | 0.00 | 93 | 1014.8 |
| 20260902060038 | 75 | 360 | 0.9 | 3.5 | 0.00 | 0.02 | 0.00 | 92 | 1014.9 |
| 20260902054546 | 75 | 207 | 0.0 | 2.6 | 0.00 | 0.02 | 0.00 | 92 | 1015.1 |
| 20260902053044 | 76 | 196 | 0.9 | 3.5 | 0.00 | 0.02 | 0.00 | 92 | 1014.9 |
| 20260902051538 | 76 | 213 | 0.9 | 3.5 | 0.00 | 0.02 | 0.00 | 92 | 1015.0 |
| 20260902050034 | 75 | 239 | 0.9 | 2.6 | 0.00 | 0.02 | 0.02 | 93 | 1014.8 |
| 20260902044532 | 75 | 213 | 0.0 | 1.7 | 0.00 | 0.02 | 0.02 | 93 | 1014.7 |
| 20260902043031 | 76 | 214 | 0.0 | 0.0 | 0.00 | 0.02 | 0.02 | 93 | 1014.6 |
| 20260902041533 | 76 | 213 | 0.0 | 2.6 | 0.00 | 0.02 | 0.02 | 94 | 1014.5 |
| 20260902040033 | 76 | 219 | 0.9 | 3.5 | 0.00 | 0.02 | 0.02 | 95 | 1014.2 |
| 20260902034530 | 75 | 186 | 2.6 | 4.3 | 0.00 | 0.02 | 0.02 | 95 | 1013.9 |
| 20260902033030 | 74 | 167 | 2.6 | 4.3 | 0.00 | 0.02 | 0.02 | 95 | 1014.2 |
| 20260902031529 | 74 | 265 | 0.0 | 0.0 | 0.00 | 0.02 | 0.02 | 94 | 1014.4 |
| 20260902030028 | 75 | 276 | 0.0 | 0.0 | 0.00 | 0.02 | 0.02 | 95 | 1014.6 |